[Date Prev][Date Next][Thread Prev][Thread Next] - [Date Index][Thread Index][Author Index]
2 Line ISS Keps 5-18
- Subject: [sarex] 2 Line ISS Keps 5-18
- From: "Dave Larsen PhD" <doc@xxxxxxxxxxx>
- Date: Wed, 17 May 2006 19:43:15 -0700
ISS
1 25544U 98067A 06137.93801944 .00012219 00000-0 82983-4 0 9545
2 25544 051.6373 343.2168 0009167 211.8478 288.4046 15.75385832428393
----
Via the sarex mailing list at AMSAT.ORG courtesy of AMSAT-NA.
To unsubscribe, send "unsubscribe sarex" to Majordomo@amsat.org
AMSAT Home